Location: ????????
(55.0808°N, 38.5463°E)
Time: 05:39:29
(UTC+00:00)

Envisat - Visible Passes

Search period start: 21 June 2024 00:00
Search period end: 01 July 2024 00:00
Orbit: 762 x 764 km, 98.3° (Epoch: 20 June)

Date Brightness Start Highest point End Pass type
(mag) Time Alt. Az. Time Alt. Az. Time Alt. Az.
21 Jun 5.5 23:20:51 10° NE 23:23:50 16° E 23:26:50 10° ESE visible
23 Jun 5.1 23:44:22 10° NE 23:48:25 23° E 23:52:26 10° SE visible
24 Jun 5.6 23:08:25 10° ENE 23:10:29 12° E 23:12:32 10° ESE visible
26 Jun 5.3 23:31:31 10° NE 23:35:06 19° E 23:38:39 10° SE visible
29 Jun 5.5 23:18:50 10° NE 23:21:45 15° E 23:24:40 10° ESE visible
